SAS449 ESGG-EKCH

Flight info

Callsign SAS449
Flight time 0h 32m
Altitude 17000
Route TOPLA L996 ERNOV
Aircraft CRJ9/M-SDFGIRWYZ/S

Departure

Time 2026-05-07 20:26
Airport Göteborg Landvetter Airport (ESGG)

Arrival

Time 2026-05-07 20:59
Airport Copenhagen Kastrup Airport (EKCH)
Time Latitude Longitude Altitude Speed Heading
2026-05-07 20:06 57.67173 12.29647 529 ft 0 kts 116°
2026-05-07 20:15 57.67174 12.29644 529 ft 2 kts 116°
2026-05-07 20:15 57.67183 12.29618 529 ft 2 kts 128°
2026-05-07 20:16 57.67195 12.29597 529 ft 2 kts 145°
2026-05-07 20:16 57.67209 12.29584 529 ft 2 kts 167°
2026-05-07 20:16 57.67226 12.29583 529 ft 2 kts 188°
2026-05-07 20:16 57.67241 12.29590 529 ft 2 kts 202°
2026-05-07 20:17 57.67247 12.29595 529 ft 0 kts 205°
2026-05-07 20:19 57.67244 12.29593 529 ft 3 kts 205°
2026-05-07 20:19 57.67218 12.29548 529 ft 9 kts 234°
2026-05-07 20:19 57.67219 12.29446 529 ft 9 kts 283°
2026-05-07 20:20 57.67197 12.29347 528 ft 13 kts 226°
2026-05-07 20:20 57.67124 12.29253 527 ft 21 kts 209°
2026-05-07 20:20 57.67009 12.29158 526 ft 16 kts 207°
2026-05-07 20:20 57.66904 12.29059 525 ft 18 kts 205°
2026-05-07 20:21 57.66784 12.28955 524 ft 20 kts 205°
2026-05-07 20:21 57.66675 12.28816 523 ft 18 kts 247°
2026-05-07 20:21 57.66619 12.28638 522 ft 16 kts 215°
2026-05-07 20:21 57.66513 12.28537 521 ft 18 kts 205°
2026-05-07 20:22 57.66397 12.28437 520 ft 19 kts 205°
2026-05-07 20:22 57.66269 12.28322 518 ft 22 kts 208°
2026-05-07 20:22 57.66130 12.28191 517 ft 23 kts 206°
2026-05-07 20:22 57.65994 12.28066 515 ft 21 kts 211°
2026-05-07 20:23 57.65867 12.27947 514 ft 20 kts 207°
2026-05-07 20:23 57.65738 12.27833 513 ft 21 kts 205°
2026-05-07 20:23 57.65605 12.27715 511 ft 21 kts 205°
2026-05-07 20:23 57.65472 12.27589 510 ft 22 kts 207°
2026-05-07 20:24 57.65336 12.27458 509 ft 22 kts 208°
2026-05-07 20:24 57.65203 12.27333 507 ft 21 kts 204°
2026-05-07 20:24 57.65071 12.27208 506 ft 19 kts 207°
2026-05-07 20:24 57.65012 12.27113 505 ft 6 kts 265°
2026-05-07 20:25 57.65022 12.27069 505 ft 6 kts 300°
2026-05-07 20:25 57.65071 12.26999 507 ft 12 kts 342°
2026-05-07 20:25 57.65175 12.26973 508 ft 22 kts 17°
2026-05-07 20:25 57.65447 12.27210 509 ft 70 kts 25°
2026-05-07 20:26 57.66051 12.27760 513 ft 121 kts 26°
2026-05-07 20:26 57.66923 12.28538 539 ft 155 kts 23°
2026-05-07 20:26 57.67885 12.29459 956 ft 158 kts 27°
2026-05-07 20:26 57.68871 12.30480 1443 ft 165 kts 29°
2026-05-07 20:27 57.69811 12.31786 1884 ft 175 kts 52°
2026-05-07 20:27 57.70162 12.33884 2559 ft 171 kts 94°
2026-05-07 20:27 57.69710 12.35961 2989 ft 186 kts 131°
2026-05-07 20:27 57.68867 12.37875 3597 ft 191 kts 125°
2026-05-07 20:28 57.68313 12.40129 4398 ft 191 kts 105°
2026-05-07 20:28 57.68136 12.42575 5232 ft 191 kts 95°
2026-05-07 20:28 57.67999 12.45153 5604 ft 213 kts 110°
2026-05-07 20:28 57.67167 12.47428 6314 ft 206 kts 146°
2026-05-07 20:29 57.65947 12.48629 7166 ft 204 kts 157°
2026-05-07 20:29 57.64578 12.49565 7631 ft 217 kts 173°
2026-05-07 20:29 57.63065 12.49394 8252 ft 221 kts 192°
2026-05-07 20:29 57.61503 12.48676 8589 ft 243 kts 195°
2026-05-07 20:30 57.59845 12.47927 9282 ft 247 kts 193°
2026-05-07 20:30 57.58093 12.47409 9781 ft 261 kts 187°
2026-05-07 20:30 57.56274 12.47056 10492 ft 264 kts 186°
2026-05-07 20:30 57.54436 12.46730 11173 ft 267 kts 187°
2026-05-07 20:31 57.52547 12.46312 11555 ft 285 kts 189°
2026-05-07 20:31 57.50513 12.45721 11742 ft 307 kts 191°
2026-05-07 20:31 57.48340 12.45017 12063 ft 325 kts 192°
2026-05-07 20:31 57.46071 12.44210 12454 ft 339 kts 192°
2026-05-07 20:32 57.43722 12.43398 13085 ft 345 kts 191°
2026-05-07 20:32 57.41344 12.42625 13791 ft 349 kts 191°
2026-05-07 20:32 57.38968 12.41878 14429 ft 353 kts 191°
2026-05-07 20:32 57.36503 12.41096 15074 ft 356 kts 191°
2026-05-07 20:33 57.34049 12.40315 15710 ft 359 kts 191°
2026-05-07 20:33 57.31574 12.39521 16334 ft 363 kts 191°
2026-05-07 20:33 57.29106 12.38730 16800 ft 366 kts 191°
2026-05-07 20:33 57.26596 12.37932 17006 ft 367 kts 191°
2026-05-07 20:34 57.24067 12.37128 17095 ft 371 kts 191°
2026-05-07 20:34 57.21514 12.36312 17135 ft 374 kts 191°
2026-05-07 20:34 57.18908 12.35470 17148 ft 376 kts 191°
2026-05-07 20:34 57.16356 12.34662 17154 ft 378 kts 191°
2026-05-07 20:35 57.13721 12.33907 17149 ft 380 kts 185°
2026-05-07 20:35 57.11093 12.34099 17157 ft 377 kts 175°
2026-05-07 20:35 57.08497 12.34809 17162 ft 376 kts 171°
2026-05-07 20:35 57.05951 12.35614 17158 ft 377 kts 172°
2026-05-07 20:36 57.03357 12.36395 17159 ft 379 kts 172°
2026-05-07 20:36 57.00745 12.37119 17162 ft 380 kts 173°
2026-05-07 20:36 56.98124 12.37785 17160 ft 378 kts 173°
2026-05-07 20:36 56.95529 12.38423 17158 ft 375 kts 173°
2026-05-07 20:37 56.92958 12.39050 17149 ft 371 kts 173°
2026-05-07 20:37 56.90407 12.39660 17148 ft 368 kts 174°
2026-05-07 20:37 56.87874 12.40225 17147 ft 365 kts 174°
2026-05-07 20:37 56.85358 12.40798 17149 ft 364 kts 173°
2026-05-07 20:38 56.82836 12.41412 17155 ft 367 kts 173°
2026-05-07 20:38 56.80294 12.42037 17159 ft 370 kts 173°
2026-05-07 20:38 56.77732 12.42666 17159 ft 373 kts 173°
2026-05-07 20:38 56.75152 12.43298 17161 ft 375 kts 173°
2026-05-07 20:39 56.72560 12.43932 17158 ft 377 kts 173°
2026-05-07 20:39 56.69953 12.44562 17159 ft 379 kts 173°
2026-05-07 20:39 56.67331 12.45210 17162 ft 381 kts 173°
2026-05-07 20:39 56.64709 12.45843 17161 ft 379 kts 173°
2026-05-07 20:40 56.62097 12.46475 17162 ft 378 kts 173°
2026-05-07 20:40 56.59498 12.47109 17156 ft 377 kts 173°
2026-05-07 20:40 56.56903 12.47740 17155 ft 376 kts 173°
2026-05-07 20:40 56.54319 12.48364 17161 ft 374 kts 173°
2026-05-07 20:41 56.51738 12.48987 17156 ft 374 kts 173°
2026-05-07 20:41 56.49170 12.49605 17105 ft 370 kts 173°
2026-05-07 20:41 56.46605 12.50221 16556 ft 370 kts 173°
2026-05-07 20:41 56.44076 12.50821 16034 ft 364 kts 173°
2026-05-07 20:42 56.41618 12.51401 15525 ft 358 kts 173°
2026-05-07 20:42 56.39164 12.52006 15021 ft 354 kts 173°
2026-05-07 20:42 56.36739 12.52594 14526 ft 350 kts 173°
2026-05-07 20:42 56.34337 12.53166 14041 ft 346 kts 173°
2026-05-07 20:43 56.31968 12.53729 13498 ft 342 kts 173°
2026-05-07 20:43 56.29622 12.54289 12964 ft 338 kts 172°
2026-05-07 20:43 56.27299 12.54841 12435 ft 335 kts 172°
2026-05-07 20:43 56.25010 12.55387 11917 ft 333 kts 172°
2026-05-07 20:44 56.22681 12.55942 11506 ft 339 kts 172°
2026-05-07 20:44 56.20356 12.56485 11312 ft 335 kts 172°
2026-05-07 20:44 56.18070 12.57021 11236 ft 329 kts 172°
2026-05-07 20:44 56.15818 12.57472 11194 ft 323 kts 175°
2026-05-07 20:45 56.13560 12.57601 11179 ft 328 kts 179°
2026-05-07 20:45 56.11248 12.57556 11181 ft 337 kts 180°
2026-05-07 20:45 56.08879 12.57483 11187 ft 341 kts 180°
2026-05-07 20:45 56.06571 12.57431 10955 ft 327 kts 179°
2026-05-07 20:46 56.04324 12.57441 10566 ft 316 kts 179°
2026-05-07 20:46 56.02183 12.57457 10174 ft 303 kts 179°
2026-05-07 20:46 56.00103 12.57479 9763 ft 299 kts 178°
2026-05-07 20:46 55.98012 12.57499 9360 ft 302 kts 178°
2026-05-07 20:47 55.95904 12.57521 8968 ft 302 kts 179°
2026-05-07 20:47 55.93823 12.57542 8563 ft 296 kts 179°
2026-05-07 20:47 55.91779 12.57562 8178 ft 292 kts 179°
2026-05-07 20:47 55.89765 12.57575 7788 ft 287 kts 179°
2026-05-07 20:48 55.87776 12.57581 7403 ft 284 kts 180°
2026-05-07 20:48 55.85839 12.57030 7017 ft 281 kts 195°
2026-05-07 20:48 55.83994 12.55931 6643 ft 278 kts 200°
2026-05-07 20:48 55.82217 12.54697 6256 ft 275 kts 202°
2026-05-07 20:49 55.80450 12.53438 5852 ft 271 kts 202°
2026-05-07 20:49 55.78707 12.52202 5469 ft 269 kts 201°
2026-05-07 20:49 55.76964 12.51026 5195 ft 269 kts 200°
2026-05-07 20:49 55.75185 12.49866 5088 ft 270 kts 200°
2026-05-07 20:50 55.73433 12.48734 5038 ft 268 kts 200°
2026-05-07 20:50 55.71704 12.47622 5012 ft 260 kts 200°
2026-05-07 20:50 55.70026 12.46547 4999 ft 253 kts 200°
2026-05-07 20:50 55.68366 12.45496 4993 ft 258 kts 200°
2026-05-07 20:51 55.66686 12.44409 4990 ft 263 kts 200°
2026-05-07 20:51 55.64967 12.43296 4996 ft 260 kts 200°
2026-05-07 20:51 55.63285 12.42219 4992 ft 253 kts 200°
2026-05-07 20:51 55.61655 12.41176 4991 ft 248 kts 200°
2026-05-07 20:52 55.60033 12.40091 4986 ft 251 kts 207°
2026-05-07 20:52 55.58598 12.38344 4994 ft 249 kts 221°
2026-05-07 20:52 55.57356 12.36347 4992 ft 234 kts 224°
2026-05-07 20:52 55.56172 12.34348 4987 ft 244 kts 225°
2026-05-07 20:53 55.54931 12.32284 5003 ft 246 kts 223°
2026-05-07 20:53 55.53649 12.30282 5016 ft 244 kts 221°
2026-05-07 20:53 55.52381 12.28378 5005 ft 234 kts 220°
2026-05-07 20:53 55.50942 12.27084 4588 ft 249 kts 187°
2026-05-07 20:54 55.49237 12.27544 4097 ft 254 kts 151°
2026-05-07 20:54 55.48008 12.29681 3722 ft 248 kts 114°
2026-05-07 20:54 55.47642 12.32523 3684 ft 230 kts 94°
2026-05-07 20:54 55.47443 12.35325 3222 ft 234 kts 95°
2026-05-07 20:55 55.47200 12.38193 2833 ft 236 kts 94°
2026-05-07 20:55 55.47396 12.40991 2650 ft 231 kts 70°
2026-05-07 20:55 55.48268 12.43350 2586 ft 232 kts 38°
2026-05-07 20:55 55.49642 12.44718 2553 ft 224 kts 27°
2026-05-07 20:56 55.50776 12.46413 2559 ft 204 kts 49°
2026-05-07 20:56 55.51633 12.48355 2397 ft 197 kts 51°
2026-05-07 20:56 55.52495 12.50074 2001 ft 178 kts 38°
2026-05-07 20:56 55.53470 12.51408 1657 ft 170 kts 38°
2026-05-07 20:57 55.54280 12.52668 1338 ft 144 kts 41°
2026-05-07 20:57 55.55040 12.53899 1218 ft 152 kts 41°
2026-05-07 20:57 55.55818 12.55136 1030 ft 147 kts 39°
2026-05-07 20:57 55.56611 12.56308 809 ft 149 kts 39°
2026-05-07 20:58 55.57402 12.57519 584 ft 151 kts 41°
2026-05-07 20:58 55.58145 12.58696 340 ft 138 kts 40°
2026-05-07 20:58 55.58876 12.59826 164 ft 140 kts 40°
2026-05-07 20:58 55.59590 12.60930 26 ft 125 kts 40°
2026-05-07 20:59 55.60148 12.61781 22 ft 89 kts 41°
2026-05-07 20:59 55.60444 12.62206 19 ft 26 kts 34°
2026-05-07 20:59 55.60614 12.62331 23 ft 26 kts 12°
2026-05-07 20:59 55.60783 12.62410 20 ft 25 kts 14°
2026-05-07 21:00 55.60901 12.62566 18 ft 22 kts 41°
2026-05-07 21:00 55.61023 12.62756 17 ft 24 kts 41°
2026-05-07 21:00 55.61147 12.62948 20 ft 22 kts 41°
2026-05-07 21:00 55.61265 12.63128 21 ft 22 kts 38°
2026-05-07 21:01 55.61387 12.63320 19 ft 26 kts 40°
2026-05-07 21:01 55.61521 12.63528 15 ft 27 kts 42°
2026-05-07 21:01 55.61657 12.63740 17 ft 25 kts 43°
2026-05-07 21:01 55.61778 12.63923 19 ft 22 kts 40°
2026-05-07 21:02 55.61902 12.64098 20 ft 22 kts 33°
2026-05-07 21:02 55.62038 12.64210 18 ft 23 kts 25°
2026-05-07 21:02 55.62184 12.64330 15 ft 24 kts 25°
2026-05-07 21:02 55.62314 12.64410 18 ft 18 kts 17°
2026-05-07 21:03 55.62435 12.64470 18 ft 18 kts 15°
2026-05-07 21:03 55.62524 12.64415 20 ft 5 kts 323°
2026-05-07 21:03 55.62571 12.64431 20 ft 5 kts 37°
2026-05-07 21:03 55.62572 12.64432 20 ft 0 kts 41°